This is the latest recevied weather packets stored in our database for station/object K7FLA. If no packets are shown the sender has not sent any weather packets the latest 10 day(s).
| Time | Temp. | Humidity | Pressure | Rain* | Wind** | Luminosity | Snow |
|---|---|---|---|---|---|---|---|
| 1788468233 | 30.56° C | 22% | 1094.5 hPa | 0 mm | - | 732 W/m² | - |
| 1788467928 | 30.56° C | 22% | 1094.6 hPa | 0 mm | - | 737 W/m² | - |
| 1788467624 | 30.56° C | 17% | 1094.6 hPa | 0 mm | - | 747 W/m² | - |
| 1788467323 | 30.56° C | 22% | 1094.6 hPa | 0 mm | - | 749 W/m² | - |
| 1788467020 | 30.56° C | 25% | 1094.6 hPa | 0 mm | - | 758 W/m² | - |
| 1788466719 | 30.56° C | 22% | 1094.6 hPa | 0 mm | - | 758 W/m² | - |
| 1788466415 | 30.56° C | 20% | 1094.7 hPa | 0 mm | - | 769 W/m² | - |
| 1788466113 | 30.56° C | 25% | 1094.7 hPa | 0 mm | - | 769 W/m² | - |
| 1788465808 | 30° C | 25% | 1094.9 hPa | 0 mm | - | 770 W/m² | - |
| 1788465504 | 30° C | 26% | 1094.8 hPa | 0 mm | - | 772 W/m² | - |
| 1788465200 | 30° C | 26% | 1094.7 hPa | 0 mm | - | 779 W/m² | - |
| 1788464895 | 29.44° C | 26% | 1095 hPa | 0 mm | - | 780 W/m² | - |
| 1788464590 | 29.44° C | 26% | 1094.9 hPa | 0 mm | - | 784 W/m² | - |
| 1788464286 | 29.44° C | 28% | 1095.1 hPa | 0 mm | - | 785 W/m² | - |
| 1788463990 | 29.44° C | 27% | 1095.2 hPa | 0 mm | - | 782 W/m² | - |
| 1788463677 | 29.44° C | 28% | 1095.2 hPa | 0 mm | - | 782 W/m² | - |
| 1788463373 | 30° C | 26% | 1095.4 hPa | 0 mm | - | 783 W/m² | - |
| 1788463069 | 29.44° C | 29% | 1095.4 hPa | 0 mm | - | 779 W/m² | - |
| 1788462764 | 29.44° C | 29% | 1095.7 hPa | 0 mm | - | 782 W/m² | - |
| 1788462476 | 30° C | 30% | 1095.6 hPa | 0 mm | - | 778 W/m² | - |
| 1788462158 | 29.44° C | 28% | 1095.5 hPa | 0 mm | - | 775 W/m² | - |
| 1788461853 | 29.44° C | 30% | 1095.7 hPa | 0 mm | - | 767 W/m² | - |
| 1788461548 | 29.44° C | 28% | 1096 hPa | 0 mm | - | 766 W/m² | - |
| 1788461244 | 29.44° C | 30% | 1096.1 hPa | 0 mm | - | 765 W/m² | - |
| 1788460941 | 29.44° C | 31% | 1095.9 hPa | 0 mm | - | 763 W/m² | - |
* Rain latest hour (hover to see other rain measurements)
** Current wind speed in m/s (hover to see current wind gust speed)